Regional Weather Roundup
Issued by NWS New Orleans/Baton Rouge, LA

Home | Current Version | Previous Version | Graphics & Text | Print | Product List | Glossary On
Versions: 1 2 3 4 5 6 7 8 9 10 11 12 13 14 15 16 17 18 19 20 21 22 23 24 25 26 27 28 29 30 31 32 33 34 35 36 37 38 39 40 41 42 43 44 45 46 47 48 49 50
647
ASUS44 KLIX 300505
RWRLIX
NEW ORLEANS REGIONAL WEATHER ROUNDUP
NATIONAL WEATHER SERVICE NEW ORLEANS LA
1200 AM CDT THU OCT 30 2014

NOTE: "FAIR" INDICATES FEW OR NO CLOUDS BELOW 12,000 FEET WITH NO
      SIGNIFICANT WEATHER AND/OR OBSTRUCTIONS TO VISIBILITY.
      SKY/WX - SKY CONDITION AND SIGNIFICANT WEATHER.
      TMP - AIR TEMPERATURE.     DP    - DEWPOINT TEMPERATURE.
      RH  - RELATIVE HUMIDITY.   PRES  - PRESSURE.
      HI  - HEAT INDEX.          WCI   - WIND CHILL INDEX.

*  THESE STATIONS ARE NOT NWS OR FAA STATIONS AND ARE NOT UNDER
   NWS QUALITY CONTROL.

LAZ038-040-048-061>063-065>067-069-300600-
SOUTHEAST LOUISIANA

CITY           SKY/WX    TMP DP  RH WIND       PRES   REMARKS
N.O. AUDUBON     N/A     70  64  82 MISG        N/A
N.O. INTL ARPT PTCLDY    70  60  70 N15       30.07S
N.O. LAKEFRONT CLEAR     71  61  70 N20       30.07F
N.O. DOWNTOWN*   N/A     70  59  68 N10       30.07S
SLIDELL        PTCLDY    65  53  65 N8        30.07S
BATON ROUGE    CLEAR     61  53  75 NE3       30.10F
BOOTHVILLE     MOCLDY    73  69  87 NE9       30.04S
BELLE CHASSE   PTCLDY    70  60  70 NE8       30.05F
BOGALUSA*        N/A     58  52  80 N7        30.11S
NEW ROADS*       N/A     58  52  81 CALM      30.11S
GONZALES*        N/A     65  57  75 N3        30.08S
HAMMOND*       NOT AVBL
HOUMA*         CLEAR     66  64  92 N6        30.06S
PORT FOURCHON* CLOUDY    73  68  83 N12G17    30.08S

$$

MSZ070-080>082-300600-
SOUTHERN MISSISSIPPI

CITY           SKY/WX    TMP DP  RH WIND       PRES   REMARKS
MCCOMB         CLEAR     59  47  64 N5        30.11S
GULFPORT       CLEAR     65  57  75 N10       30.06S
BILOXI         CLEAR     65  59  80 NE12      30.06S
PASCAGOULA     PTCLDY    65  57  75 N10       30.06F

$$

COASTAL OBSERVATIONS
LAKE AND NEARSHORE STATIONS

STATION/POSITION TIME  TEMP    WIND        PRES    WAVE
                       AIR SEA DIR/SP/G            HT/PER
                 (UTC) (F)     (DEG/KT/KT) (MB)    (FT/S)
PASCAGOULA       0500   67      10/ 10/ 14 1017.4
WAVELAND YACHT   0500   67      30/ 15/ 18 1017.4
GRAND ISLE       0500   74 78   30/ 13/ 16 1018.0
SOUTHWEST PASS   0500   73 78              1017.1
NEW CANAL        0500   70 72   30/ 14/ 16 1018.3
SHELL BEACH      0500   72 71   30/ 15/ 18 1017.4

OFFSHORE STATIONS

STATION/POSITION TIME  TEMP    WIND        PRES    WAVE
                       AIR SEA DIR/SP/G            HT/PER
                 (UTC) (F)     (DEG/KT/KT) (MB)    (FT/S)
64 S DAUPHIN ISL 0436   75 78  290/  6/  8 1016.9    1/ 7

$$




USA.gov is the U.S. government's official web portal to all federal, state and local government web resources and services.